Regional Weather Roundup
Issued by NWS

Home | Current Version | Previous Version | Text Only | Print | Product List | Glossary On
Versions: 1 2 3 4 5 6 7 8 9 10 11 12 13 14 15 16 17 18 19 20 21 22 23 24 25 26 27 28 29 30 31 32 33 34 35 36 37 38 39 40 41 42 43 44 45 46 47 48 49 50
000
ASUS43 KBIS 241120
RWRND

NORTH DAKOTA REGIONAL WEATHER ROUNDUP
NATIONAL WEATHER SERVICE BISMARCK ND
600 AM CDT THU JUL 24 2014

NOTE: "FAIR" INDICATES FEW OR NO CLOUDS BELOW 12,000 FEET WITH NO
SIGNIFICANT WEATHER AND/OR OBSTRUCTIONS TO VISIBILITY.


NDZ001>003-009>011-017-241200-
NORTHWEST NORTH DAKOTA

CITY           SKY/WX    TMP DP  RH WIND       PRES   REMARKS
WILLISTON      HVY RAIN  64  61  90 E15       29.94R FOG
MINOT          MOCLDY    63  59  87 E14       29.95F
MINOT AFB      MOCLDY    62  62  99 SE13      29.94F
$$

NDZ018>021-031>035-040>046-241200-
SOUTHWEST NORTH DAKOTA

CITY           SKY/WX    TMP DP  RH WIND       PRES   REMARKS
BISMARCK       PTCLDY    65  56  72 SE9       29.96F
DICKINSON      LGT RAIN  63  56  78 SE21G28   29.84F
GARRISON         N/A     64  58  80 E8        29.95F
HETTINGER ARPT PTCLDY    65  57  75 SE17G26   29.85F
$$

NDZ004>008-012>016-024-026-027-054-241200-
NORTHEAST NORTH DAKOTA

CITY           SKY/WX    TMP DP  RH WIND       PRES   REMARKS
GRAND FORKS    MOCLDY    59  56  89 S6        30.10S
GRND FRKS AFB  CLOUDY    59  58  99 S6        30.11S
DEVILS LAKE    PTCLDY    63  55  77 SE16      30.06S
$$

NDZ022-023-025-028>030-036>039-047>053-241200-
SOUTHEAST NORTH DAKOTA

CITY           SKY/WX    TMP DP  RH WIND       PRES   REMARKS
FARGO          MOCLDY    63  58  83 SE5       30.10F
JAMESTOWN      PTCLDY    61  58  90 SE8       30.06F
$$



USA.gov is the U.S. government's official web portal to all federal, state and local government web resources and services.